ATLAS 5 CENTAUR DEB, 44683

Orbit data source: Space-Track

ATLAS 5 CENTAUR DEB, 44683 is space debris in HEO originally from a launch on Wed, 17 Oct 2018 UTC launched from the Air Force Eastern Test Range (AFETR). Debris objects in space refer to the collection of defunct objects orbiting the Earth. Examples of debris include non-operational satellites, rocket bodies, and fragments generated from explosions, collisions, or faulty payload assembly.

Loading next visibility...
Identifier
44683, 2018-079AV
Orbit
HEO
Country
Flag of USUS
Related business
Flag of USUnited Launch Alliance/Lockheed Martin (US)
Manufacturer
ULA Decatur
Mission
Spacecraft
Bus & Motor
Unknown
Mass
Unknown
Launch date (UTC)
2018-10-17 (8 years ago)
Launch vehicle
Unknown
Launch site
Air Force Eastern Test Range (AFETR)
Object type
Payload
Rocket body
Debris
Shape & HBR
Unknown shape, 1.1 m
Radar Cross Section
Medium (>0.1 m² and <1 m²)

Expand to show TLE details & history
Last TLE update: 4 days ago

TLE from 4 days ago
0 ATLAS 5 CENTAUR DEB
1 44683U 18079AV  26169.72368138 -.00000122  00000-0  00000-0 0  9998
2 44683  13.3368  30.8365 4707634 325.4362  11.4107  1.83240871 51354
Epoch: 2026-06-18T17:22Z
TLE epoch observation values (Epoch: 2026-06-18T17:22:06.071Z)
Latitude
0.00011°
Longitude
-136.66759°
Altitude
9,477.244 km
Speed
6.012 km/s
True Right ascension
02h 03m 16s
True Declination
0° 00' 00"
Sunlit
Object was in daylight at epoch
Visualization orbit readout
Latitude
Unknown
Longitude
Unknown
Altitude
Unknown
Speed
Unknown
Apparent Right ascension
Unknown
Apparent Declination
Unknown
Sunlit
N/A
Visualization observer readout
Local Sidereal Time
21:36:55
Azimuth
Unknown
Elevation
Unknown
Doppler factor
Unknown
Orbital elements
Apogee altitude
35,113.659 km
Perigee altitude
8,552.189 km
Semi-major axis
28,211.061 km
Eccentricity
0.47076
Inclination
13.3368°
RAAN
30.8365°
Arg. of periapsis
325.4362°
True anomaly
34.55466°
Mean anomaly
11.4107°
Eccentric anomaly
21.1371°
Mean motion
0.45805 °/min
Orbital period
785.94 mins
BSTAR
0
Loading maneuver chart data...
Computing Atmospheric mass density...

Documentation

Showing up to 5 results
|